Regional Weather Roundup
Issued by NWS Little Rock, AR

Home | Current Version | Previous Version | Text Only | Print | Product List | Glossary On
Versions: 1 2 3 4 5 6 7 8 9 10 11 12 13 14 15 16 17 18 19 20 21 22 23 24 25 26 27 28 29 30 31 32 33 34 35 36 37 38 39 40 41 42 43 44 45 46 47 48 49 50
000
ASUS44 KLZK 011205
RWRLZK

WEATHER ROUNDUP FOR ARKANSAS
NATIONAL WEATHER SERVICE LITTLE ROCK AR
700 AM CDT WED OCT 01 2014

NOTE: "FAIR" INDICATES FEW OR NO CLOUDS BELOW 12,000 FEET WITH NO
SIGNIFICANT WEATHER AND/OR OBSTRUCTIONS TO VISIBILITY.

ARZ001-003-010-029-011300-
NORTHWEST ARKANSAS

CITY           SKY/WX    TMP DP  RH WIND       PRES   REMARKS
FAYETTEVILLE   CLEAR     68  60  75 S6        29.85S
6HR MIN TEMP:  58; 6HR MAX TEMP:  69;

FORT SMITH     PTCLDY    66  61  84 E5        29.83R
6HR MIN TEMP:  66; 6HR MAX TEMP:  69;

HARRISON       CLEAR     62  58  86 SE8       29.88S
6HR MIN TEMP:  61; 6HR MAX TEMP:  63;

BENTONVILLE    CLEAR     66  57  72 S5        29.85R
6HR MIN TEMP:  63; 6HR MAX TEMP:  66;

ROGERS         CLEAR     66  59  78 SE8       29.86R
6HR MIN TEMP:  65; 6HR MAX TEMP:  66;

SILOAM SPGS    CLEAR     70  57  64 S8        29.85R
6HR MIN TEMP:  64; 6HR MAX TEMP:  70;

HIGHFILL       CLEAR     64  59  83 SW3       29.84R
6HR MIN TEMP:  59; 6HR MAX TEMP:  65;

SPRINGDALE     CLEAR     66  59  77 SE5       29.87R
$$

ARZ004-005-016-011300-
NORTH CENTRAL ARKANSAS

CITY           SKY/WX    TMP DP  RH WIND       PRES   REMARKS
BATESVILLE     CLEAR     59  54  82 E3        29.88S
6HR MIN TEMP:  57; 6HR MAX TEMP:  63;

FLIPPIN        CLEAR     57  52  82 CALM      29.88S
6HR MIN TEMP:  57; 6HR MAX TEMP:  61;

MTN HOME       PTCLDY    59  56  89 CALM      29.88R
6HR MIN TEMP:  59; 6HR MAX TEMP:  64;

$$

ARZ040-041-011300-
WEST CENTRAL ARKANSAS

CITY           SKY/WX    TMP DP  RH WIND       PRES   REMARKS
MENA             N/A     63  63 100 CALM      29.86S
MOUNT IDA      MOCLDY    68  66  93 CALM      29.85R
6HR MIN TEMP:  64; 6HR MAX TEMP:  70;

$$

ARZ009-017-025-026-028-011300-
NORTHEAST ARKANSAS

CITY           SKY/WX    TMP DP  RH WIND       PRES   REMARKS
CORNING          N/A     59  57  94 NE3       29.90R
JONESBORO      CLEAR     62  60  93 CALM      29.89S
6HR MIN TEMP:  60; 6HR MAX TEMP:  65;

NEWPORT        CLEAR     63  60  90 S5        29.89S
6HR MIN TEMP:  61; 6HR MAX TEMP:  66; 6HR PCP: TRACE;

WALNUT RIDGE   CLEAR     61  55  82 NE3       29.87S
6HR MIN TEMP:  59; 6HR MAX TEMP:  64;

BLYTHEVILLE    CLEAR     67  61  81 S7        29.91R
6HR MIN TEMP:  64; 6HR MAX TEMP:  67;

$$

ARZ022-023-033-042-044-011300-
CENTRAL ARKANSAS

CITY           SKY/WX    TMP DP  RH WIND       PRES   REMARKS
LITTLE ROCK    MOCLDY    70  62  76 SW3       29.88R
6HR MIN TEMP:  66; 6HR MAX TEMP:  70;

N LITTLE ROCK    N/A     69  64  84 S5        29.88R
6HR MIN TEMP:  68; 6HR MAX TEMP:  73;

JACKSONVILLE   PTCLDY    64  61  91 CALM      29.88R
6HR MIN TEMP:  62; 6HR MAX TEMP:  64;

SEARCY           N/A     60  58  92 CALM      29.90R
6HR MIN TEMP:  60; 6HR MAX TEMP:  62;

HOT SPRINGS    LGT RAIN  71  64  78 CALM      29.87S
6HR MIN TEMP:  69; 6HR MAX TEMP:  73; 6HR PCP:  0.01;

RUSSELLVILLE   CLEAR     62  60  93 CALM      29.85F FOG
6HR MIN TEMP:  62; 6HR MAX TEMP:  65;

CLINTON        FAIR      59  57  94 CALM      29.89S FOG
$$

ARZ036-011300-
EAST ARKANSAS

CITY           SKY/WX    TMP DP  RH WIND       PRES   REMARKS
WEST MEMPHIS   MOCLDY    64  63  96 SE6       29.90R
6HR MIN TEMP:  64; 6HR MAX TEMP:  70;

$$

ARZ050-053-066-070-073-011300-
SOUTHWEST ARKANSAS

CITY           SKY/WX    TMP DP  RH WIND       PRES   REMARKS
ARKADELPHIA    FAIR      71  71 100 CALM      29.87R FOG
6HR MIN TEMP:  67; 6HR MAX TEMP:  72; 6HR PCP:  0.72;

CAMDEN         MOCLDY    68  64  88 NW3       29.87R
TEXARKANA      CLEAR     72  70  93 S6        29.84F
6HR MIN TEMP:  69; 6HR MAX TEMP:  74;

EL DORADO      PTCLDY    71  68  90 S3        29.87R
6HR MIN TEMP:  71; 6HR MAX TEMP:  74;

DE QUEEN       CLOUDY    67  65  93 E5        29.82S
6HR MIN TEMP:  66; 6HR MAX TEMP:  71;

$$

ARZ056-057-069-011300-
SOUTHEAST ARKANSAS

CITY           SKY/WX    TMP DP  RH WIND       PRES   REMARKS
PINE BLUFF     CLOUDY    67  63  87 E3        29.88S
6HR MIN TEMP:  63; 6HR MAX TEMP:  67; 6HR PCP: TRACE;

STUTTGART      MOCLDY   N/A N/A N/A S5        29.88S
MONTICELLO     PTCLDY    71  66  84 S5        29.88S
6HR MIN TEMP:  68; 6HR MAX TEMP:  73; 6HR PCP: TRACE;


$$





USA.gov is the U.S. government's official web portal to all federal, state and local government web resources and services.